Regional Weather Roundup
Issued by NWS Albany, NY

Home | Current Version | Previous Version | Graphics & Text | Print | Product List | Glossary Off
Versions: 1 2 3 4 5 6 7 8 9 10 11 12 13 14 15 16 17 18 19 20 21 22 23 24 25 26 27 28 29 30 31 32 33 34 35 36 37 38 39 40 41 42 43 44 45 46 47 48 49 50

000
ASUS41 KALY 240110
RWRALY

NEW YORK STATE HOURLY WEATHER ROUNDUP
NATIONAL WEATHER SERVICE ALBANY NY
800 PM EST THU NOV 23 2017

NOTE: "FAIR" INDICATES FEW OR NO CLOUDS BELOW 12,000 FEET WITH NO
SIGNIFICANT WEATHER AND/OR NO OBSTRUCTIONS TO VISIBILITY.

NYZ032-033-038>043-046>054-057>066-NYZ062>081-082-084-240200-
EAST


CITY           SKY/WX    TMP DP  RH WIND       PRES   REMARKS
ALBANY         CLOUDY    32  22  66 S5        30.00S WCI  27
GLENS FALLS    CLOUDY    30  23  75 S3        29.98S
POUGHKEEPSIE   CLEAR     28  20  71 CALM      30.01R
NEWBURGH       CLEAR     32  23  69 MISG      30.02R
MONTGOMERY     CLEAR     28  20  71 CALM      30.00R
WHITE PLAINS   CLOUDY    33  21  61 NW3       29.99S
ISLIP          MOCLDY    35  23  61 SW3       30.00F
NEW YORK CITY  PTCLDY    42  20  41 W8        30.01F
CENTRAL PARK   CLEAR     40  20  44 W8        30.03F WCI  34
$$

NYZ005>009-017-018-044>046-055-056-240200-
CENTRAL


CITY           SKY/WX    TMP DP  RH WIND       PRES   REMARKS
FULTON         CLOUDY    36  26  67 S7        29.96F WCI  30
SYRACUSE       CLOUDY    35  25  66 S9        29.97F WCI  28
ROME           CLOUDY    32  27  81 SE3       29.99S
ELMIRA         CLOUDY    35  28  75 CALM      29.98R
BINGHAMTON     CLOUDY    30  20  66 S3        29.96R
MONTICELLO     CLOUDY    29  21  72 W3        29.99R
$$

NYZ026>034-041>043-087-240200-
NORTH


CITY           SKY/WX    TMP DP  RH WIND       PRES   REMARKS
WATERTOWN      CLOUDY    35  27  72 S10G18    29.92F WCI  27
FORT DRUM      NOT AVBL
OGDENSBURG     CLOUDY    33  29  83 S6        29.90S WCI  28
MASSENA        CLOUDY    34  27  75 SW13      29.91S WCI  25
SARANAC LAKE   FLURRIES  27  23  85 SW10      29.85F WCI  17
PLATTSBURGH    CLOUDY    31  20  63 S8        29.92F WCI  23
$$

NYZ001>004-010>016-019>021-085-240200-
WEST


CITY           SKY/WX    TMP DP  RH WIND       PRES   REMARKS
NIAGARA FALLS  CLOUDY    41  28  60 SW12      29.95S
BUFFALO        CLOUDY    36  24  62 SW12      29.96S WCI  28
DUNKIRK        CLOUDY    36  23  59 SW7       29.99R WCI  30
JAMESTOWN      CLOUDY    31  23  72 SW10      29.96R WCI  22
WELLSVILLE     CLOUDY    35  20  54 SW7       29.94S WCI  29
ROCHESTER      CLOUDY    37  28  70 SW8       29.96S WCI  31
PENN YAN       CLOUDY    35  24  64 S3        29.96F
$$

             KEY
       WCI = WIND CHILL INDEX
       VSB = VISIBILITY
       HX  = HEAT INDEX
$$



USA.gov is the U.S. government's official web portal to all federal, state and local government web resources and services.